Location: *
(55.5817°S, 142.4781°W)
Time: 06:54:12
(UTC+00:00)

Cosmos 2219 - Pass Details

Date: 29 April 2025
Orbit: 831 x 860 km, 71.1° (Epoch: 23 May)

Event Time Altitude Azimuth Distance (km) Brightness Sun altitude
Exits shadow 15:13:16 16° 235° (SW) 2,083 4.7 -14.0°
Maximum altitude 15:16:52 30° 286° (WNW) 1,462 3.9 -13.5°
Drops below altitude 10° 15:21:42 10° 346° (NNW) 2,452 5.5 -12.8°
Sets 15:24:22 0° 356° (N) 3,379 6.4 -12.5°
